{"data":{"norad_id":68701,"intl_designator":"2026-081C","name":"STARLINK-36955","alt_names":[],"object_type":"PAYLOAD","status":"ACTIVE","operator":null,"country":"US","launch_date":"2026-04-14","launch_site_code":"AFETR","launch_vehicle":null,"mission":null,"orbit_class":"UNKNOWN","rcs_meters":null,"size_class":null,"mass_kg":null,"dimensions":null,"purposes":["comms"],"wikipedia_slug":null,"has_3d_model":false,"image_url":null,"decayed_at":null,"tle_current":{"epoch":"2026-05-25T04:00:03.998880Z","epoch_age_seconds":54598,"freshness":"FRESH","line1":"1 68701U 26081C   26145.16671295 -.02136748  00000+0 -60837-1 0  9991","line2":"2 68701  53.1595  39.2111 0001462  78.7312  41.7572 15.38854193  5907","mean_motion":15.38854193,"eccentricity":0.0001462,"inclination_deg":53.1595,"raan_deg":39.2111,"arg_perigee_deg":78.7312,"mean_anomaly_deg":41.7572,"bstar":-0.060837,"rev_number":590,"period_min":93.576116993431,"perigee_km":448.49818315454,"apogee_km":450.49458315578,"semimajor_km":6827.6333831552,"source":"CELESTRAK","updated_at":"2026-05-25T13:38:21.997740Z"}}}